owner,sensor,date,latitude,longitude,vertical_datum,wind_speed,wind_to_direction,wind_speed_of_gust,qcFlag 
COMPS,ioos:station:USF.COMPS:C10:1,2016-08-01T00:05:00Z,27.1690,-82.9260,3.0,3.55,203.28,4.75,'1111122,1111122,1111122' 
COMPS,ioos:station:USF.COMPS:C10:1,2016-08-01T00:35:00Z,27.1690,-82.9260,3.0,3.23,212.97,4.45,'1111122,1111122,1111122' 
COMPS,ioos:station:USF.COMPS:C10:1,2016-08-01T01:05:00Z,27.1690,-82.9260,3.0,7.76,139.16,9.76,'1111122,1111122,1111122' 
COMPS,ioos:station:USF.COMPS:C10:1,2016-08-01T01:35:00Z,27.1690,-82.9260,3.0,8.93,107.67,11.27,'1111122,1111122,1111122' 
COMPS,ioos:station:USF.COMPS:C10:1,2016-08-01T02:05:00Z,27.1690,-82.9260,3.0,5.56,83.61,7.89,'1111122,1111122,1111122' 
COMPS,ioos:station:USF.COMPS:C10:1,2016-08-01T02:35:00Z,27.1690,-82.9260,3.0,4.87,107.52,6.39,'1111122,1111122,1111122' 
COMPS,ioos:station:USF.COMPS:C10:1,2016-08-01T04:05:00Z,27.1690,-82.9260,3.0,7.87,117.01,9.49,'1111122,1111122,1111122' 
COMPS,ioos:station:USF.COMPS:C10:1,2016-08-01T04:35:00Z,27.1690,-82.9260,3.0,5.11,106.88,6.72,'1111122,1111122,1111122' 
COMPS,ioos:station:USF.COMPS:C10:1,2016-08-01T06:05:00Z,27.1690,-82.9260,3.0,5.28,131.49,6.85,'1111122,1111122,1111122' 
COMPS,ioos:station:USF.COMPS:C10:1,2016-08-01T06:35:00Z,27.1690,-82.9260,3.0,5.89,132.8,7.0,'1111122,1111122,1111122' 
COMPS,ioos:station:USF.COMPS:C10:1,2016-08-01T07:05:00Z,27.1690,-82.9260,3.0,6.18,135.59,7.74,'1111122,1111122,1111122' 
COMPS,ioos:station:USF.COMPS:C10:1,2016-08-01T07:35:00Z,27.1690,-82.9260,3.0,5.53,129.7,6.88,'1111122,1111122,1111122' 
COMPS,ioos:station:USF.COMPS:C10:1,2016-08-01T08:05:00Z,27.1690,-82.9260,3.0,4.4,135.84,5.75,'1111122,1111122,1111122' 
COMPS,ioos:station:USF.COMPS:C10:1,2016-08-01T08:35:00Z,27.1690,-82.9260,3.0,5.86,138.55,7.34,'1111122,1111122,1111122' 
COMPS,ioos:station:USF.COMPS:C10:1,2016-08-01T09:05:00Z,27.1690,-82.9260,3.0,5.98,126.5,7.35,'1111122,1111122,1111122' 
COMPS,ioos:station:USF.COMPS:C10:1,2016-08-01T09:35:00Z,27.1690,-82.9260,3.0,7.92,145.32,9.67,'1111122,1111122,1111122' 
COMPS,ioos:station:USF.COMPS:C10:1,2016-08-01T10:05:00Z,27.1690,-82.9260,3.0,7.67,143.74,9.62,'1111122,1111122,1111122' 
COMPS,ioos:station:USF.COMPS:C10:1,2016-08-01T10:35:00Z,27.1690,-82.9260,3.0,6.52,147.84,8.41,'1111122,1111122,1111122' 
COMPS,ioos:station:USF.COMPS:C10:1,2016-08-01T11:05:00Z,27.1690,-82.9260,3.0,6.96,141.69,8.88,'1111122,1111122,1111122' 
COMPS,ioos:station:USF.COMPS:C10:1,2016-08-01T11:35:00Z,27.1690,-82.9260,3.0,6.99,144.15,8.61,'1111122,1111122,1111122' 
COMPS,ioos:station:USF.COMPS:C10:1,2016-08-01T12:05:00Z,27.1690,-82.9260,3.0,7.63,146.18,9.92,'1111122,1111122,1111122' 
COMPS,ioos:station:USF.COMPS:C10:1,2016-08-01T12:35:00Z,27.1690,-82.9260,3.0,7.3,146.15,8.84,'1111122,1111122,1111122' 
COMPS,ioos:station:USF.COMPS:C10:1,2016-08-01T14:05:00Z,27.1690,-82.9260,3.0,5.46,114.77,6.72,'1111122,1111122,1111122' 
COMPS,ioos:station:USF.COMPS:C10:1,2016-08-01T14:35:00Z,27.1690,-82.9260,3.0,4.49,116.17,5.8,'1111122,1111122,1111122' 
COMPS,ioos:station:USF.COMPS:C10:1,2016-08-01T15:05:00Z,27.1690,-82.9260,3.0,4.67,112.1,6.46,'1111122,1111122,1111122' 
COMPS,ioos:station:USF.COMPS:C10:1,2016-08-01T15:35:00Z,27.1690,-82.9260,3.0,4.56,111.68,5.84,'1111122,1111122,1111122' 
COMPS,ioos:station:USF.COMPS:C10:1,2016-08-01T16:05:00Z,27.1690,-82.9260,3.0,4.26,105.26,5.69,'1111122,1111122,1111122' 
COMPS,ioos:station:USF.COMPS:C10:1,2016-08-01T16:35:00Z,27.1690,-82.9260,3.0,4.12,101.4,5.77,'1111122,1111122,1111122' 
COMPS,ioos:station:USF.COMPS:C10:1,2016-08-01T17:05:00Z,27.1690,-82.9260,3.0,3.23,104.63,4.83,'1111122,1111122,1111122' 
COMPS,ioos:station:USF.COMPS:C10:1,2016-08-01T17:35:00Z,27.1690,-82.9260,3.0,3.15,127.4,4.41,'1111122,1111122,1111122' 
COMPS,ioos:station:USF.COMPS:C10:1,2016-08-01T18:05:00Z,27.1690,-82.9260,3.0,2.65,126.49,3.89,'1111122,1111122,1111122' 
COMPS,ioos:station:USF.COMPS:C10:1,2016-08-01T18:35:00Z,27.1690,-82.9260,3.0,2.02,136.58,2.99,'1111122,1111122,1111122' 
COMPS,ioos:station:USF.COMPS:C10:1,2016-08-01T19:05:00Z,27.1690,-82.9260,3.0,1.01,159.71,1.96,'1111122,1111122,1111122' 
COMPS,ioos:station:USF.COMPS:C10:1,2016-08-01T19:35:00Z,27.1690,-82.9260,3.0,0.82,213.74,1.56,'1111122,1111122,1111122' 
COMPS,ioos:station:USF.COMPS:C10:1,2016-08-01T20:05:00Z,27.1690,-82.9260,3.0,1.68,248.88,2.47,'1111122,1111122,1111122' 
COMPS,ioos:station:USF.COMPS:C10:1,2016-08-01T20:35:00Z,27.1690,-82.9260,3.0,2.74,267.06,3.63,'1111122,1111122,1111122' 
COMPS,ioos:station:USF.COMPS:C10:1,2016-08-01T21:05:00Z,27.1690,-82.9260,3.0,2.93,269.27,3.92,'1111122,1111122,1111122' 
COMPS,ioos:station:USF.COMPS:C10:1,2016-08-01T21:35:00Z,27.1690,-82.9260,3.0,2.97,289.66,4.01,'1111122,1111122,1111122' 
COMPS,ioos:station:USF.COMPS:C10:1,2016-08-01T22:05:00Z,27.1690,-82.9260,3.0,3.09,319.44,3.93,'1111122,1111122,1111122' 
COMPS,ioos:station:USF.COMPS:C10:1,2016-08-01T22:35:00Z,27.1690,-82.9260,3.0,1.76,331.72,2.75,'1111122,1111122,1111122' 
COMPS,ioos:station:USF.COMPS:C10:1,2016-08-01T23:05:00Z,27.1690,-82.9260,3.0,1.61,335.39,2.48,'1111122,1111122,1111122' 
COMPS,ioos:station:USF.COMPS:C10:1,2016-08-01T23:35:00Z,27.1690,-82.9260,3.0,2.49,328.58,3.83,'1111122,1111122,1111122' 
COMPS,ioos:station:USF.COMPS:C10:1,2016-08-02T00:05:00Z,27.1690,-82.9260,3.0,3.28,319.1,4.28,'1111122,1111122,1111122' 
COMPS,ioos:station:USF.COMPS:C10:1,2016-08-02T00:35:00Z,27.1690,-82.9260,3.0,2.35,321.37,3.32,'1111122,1111122,1111122' 
COMPS,ioos:station:USF.COMPS:C10:1,2016-08-02T01:05:00Z,27.1690,-82.9260,3.0,1.33,42.92,2.27,'1111122,1111122,1111122' 
COMPS,ioos:station:USF.COMPS:C10:1,2016-08-02T01:35:00Z,27.1690,-82.9260,3.0,2.06,143.04,2.86,'1111122,1111122,1111122' 
COMPS,ioos:station:USF.COMPS:C10:1,2016-08-02T02:05:00Z,27.1690,-82.9260,3.0,0.39,78.79,1.59,'1111122,1111122,1111122' 
COMPS,ioos:station:USF.COMPS:C10:1,2016-08-02T02:35:00Z,27.1690,-82.9260,3.0,1.16,345.82,3.2,'1111122,1111122,1111122' 
COMPS,ioos:station:USF.COMPS:C10:1,2016-08-02T05:05:00Z,27.1690,-82.9260,3.0,3.89,58.26,4.69,'1111122,1111122,1111122' 
COMPS,ioos:station:USF.COMPS:C10:1,2016-08-02T05:35:00Z,27.1690,-82.9260,3.0,3.57,89.34,4.4,'1111122,1111122,1111122' 
COMPS,ioos:station:USF.COMPS:C10:1,2016-08-02T06:05:00Z,27.1690,-82.9260,3.0,7.85,115.08,9.62,'1111122,1111122,1111122' 
COMPS,ioos:station:USF.COMPS:C10:1,2016-08-02T06:35:00Z,27.1690,-82.9260,3.0,7.4,131.16,9.24,'1111122,1111122,1111122' 
COMPS,ioos:station:USF.COMPS:C10:1,2016-08-02T07:05:00Z,27.1690,-82.9260,3.0,7.36,141.4,9.07,'1111122,1111122,1111122' 
COMPS,ioos:station:USF.COMPS:C10:1,2016-08-02T07:35:00Z,27.1690,-82.9260,3.0,6.57,134.19,7.97,'1111122,1111122,1111122' 
COMPS,ioos:station:USF.COMPS:C10:1,2016-08-02T08:05:00Z,27.1690,-82.9260,3.0,6.39,133.98,7.88,'1111122,1111122,1111122' 
COMPS,ioos:station:USF.COMPS:C10:1,2016-08-02T08:35:00Z,27.1690,-82.9260,3.0,6.25,129.85,7.57,'1111122,1111122,1111122' 
COMPS,ioos:station:USF.COMPS:C10:1,2016-08-02T09:05:00Z,27.1690,-82.9260,3.0,6.32,137.5,7.61,'1111122,1111122,1111122' 
COMPS,ioos:station:USF.COMPS:C10:1,2016-08-02T09:35:00Z,27.1690,-82.9260,3.0,5.74,137.3,6.96,'1111122,1111122,1111122' 
COMPS,ioos:station:USF.COMPS:C10:1,2016-08-02T10:05:00Z,27.1690,-82.9260,3.0,5.48,156.42,6.47,'1111122,1111122,1111122' 
COMPS,ioos:station:USF.COMPS:C10:1,2016-08-02T10:35:00Z,27.1690,-82.9260,3.0,4.13,171.14,5.29,'1111122,1111122,1111122' 
COMPS,ioos:station:USF.COMPS:C10:1,2016-08-02T11:05:00Z,27.1690,-82.9260,3.0,2.08,199.4,3.38,'1111122,1111122,1111122' 
COMPS,ioos:station:USF.COMPS:C10:1,2016-08-02T11:35:00Z,27.1690,-82.9260,3.0,1.23,227.29,1.96,'1111122,1111122,1111122' 
COMPS,ioos:station:USF.COMPS:C10:1,2016-08-02T12:05:00Z,27.1690,-82.9260,3.0,1.46,144.96,2.57,'1111122,1111122,1111122' 
COMPS,ioos:station:USF.COMPS:C10:1,2016-08-02T12:35:00Z,27.1690,-82.9260,3.0,2.3,110.4,3.06,'1111122,1111122,1111122' 
COMPS,ioos:station:USF.COMPS:C10:1,2016-08-02T15:05:00Z,27.1690,-82.9260,3.0,3.84,98.42,4.8,'1111122,1111122,1111122' 
COMPS,ioos:station:USF.COMPS:C10:1,2016-08-02T15:35:00Z,27.1690,-82.9260,3.0,2.94,109.45,4.16,'1111122,1111122,1111122' 
COMPS,ioos:station:USF.COMPS:C10:1,2016-08-02T16:05:00Z,27.1690,-82.9260,3.0,1.68,110.42,2.52,'1111122,1111122,1111122' 
COMPS,ioos:station:USF.COMPS:C10:1,2016-08-02T16:35:00Z,27.1690,-82.9260,3.0,2.91,117.48,3.99,'1111122,1111122,1111122' 
COMPS,ioos:station:USF.COMPS:C10:1,2016-08-02T17:05:00Z,27.1690,-82.9260,3.0,2.94,118.43,4.11,'1111122,1111122,1111122' 
COMPS,ioos:station:USF.COMPS:C10:1,2016-08-02T17:35:00Z,27.1690,-82.9260,3.0,2.37,104.83,3.23,'1111122,1111122,1111122' 
COMPS,ioos:station:USF.COMPS:C10:1,2016-08-02T19:05:00Z,27.1690,-82.9260,3.0,2.45,333.12,3.33,'1111122,1111122,1111122' 
COMPS,ioos:station:USF.COMPS:C10:1,2016-08-02T19:35:00Z,27.1690,-82.9260,3.0,1.75,326.54,2.82,'1111122,1111122,1111122' 
COMPS,ioos:station:USF.COMPS:C10:1,2016-08-02T20:05:00Z,27.1690,-82.9260,3.0,0.89,294.96,2.0,'1111122,1111122,1111122' 
COMPS,ioos:station:USF.COMPS:C10:1,2016-08-02T20:35:00Z,27.1690,-82.9260,3.0,1.12,354.37,1.81,'1111122,1111122,1111122' 
COMPS,ioos:station:USF.COMPS:C10:1,2016-08-02T21:05:00Z,27.1690,-82.9260,3.0,1.73,332.06,2.81,'1111122,1111122,1111122' 
COMPS,ioos:station:USF.COMPS:C10:1,2016-08-02T21:35:00Z,27.1690,-82.9260,3.0,0.9,322.88,1.92,'1111122,1111122,1111122' 
COMPS,ioos:station:USF.COMPS:C10:1,2016-08-02T23:05:00Z,27.1690,-82.9260,3.0,10.65,119.87,14.21,'1111122,1111122,1111122' 
COMPS,ioos:station:USF.COMPS:C10:1,2016-08-02T23:35:00Z,27.1690,-82.9260,3.0,6.84,105.74,11.05,'1111122,1111122,1111122' 
COMPS,ioos:station:USF.COMPS:C10:1,2016-08-03T00:05:00Z,27.1690,-82.9260,3.0,4.42,135.18,6.33,'1111122,1111122,1111122' 
COMPS,ioos:station:USF.COMPS:C10:1,2016-08-03T00:35:00Z,27.1690,-82.9260,3.0,2.63,141.48,4.05,'1111122,1111122,1111122' 
COMPS,ioos:station:USF.COMPS:C10:1,2016-08-03T01:05:00Z,27.1690,-82.9260,3.0,5.26,150.06,6.42,'1111122,1111122,1111122' 
COMPS,ioos:station:USF.COMPS:C10:1,2016-08-03T01:35:00Z,27.1690,-82.9260,3.0,5.36,149.86,6.73,'1111122,1111122,1111122' 
COMPS,ioos:station:USF.COMPS:C10:1,2016-08-03T02:05:00Z,27.1690,-82.9260,3.0,5.5,144.0,9.63,'1111122,1111122,1111122' 
COMPS,ioos:station:USF.COMPS:C10:1,2016-08-03T02:35:00Z,27.1690,-82.9260,3.0,4.76,137.3,6.39,'1111122,1111122,1111122' 
COMPS,ioos:station:USF.COMPS:C10:1,2016-08-03T03:05:00Z,27.1690,-82.9260,3.0,5.09,149.79,6.49,'1111122,1111122,1111122' 
COMPS,ioos:station:USF.COMPS:C10:1,2016-08-03T03:35:00Z,27.1690,-82.9260,3.0,5.14,148.03,6.34,'1111122,1111122,1111122' 
COMPS,ioos:station:USF.COMPS:C10:1,2016-08-03T05:05:00Z,27.1690,-82.9260,3.0,4.82,142.92,5.97,'1111122,1111122,1111122' 
COMPS,ioos:station:USF.COMPS:C10:1,2016-08-03T05:35:00Z,27.1690,-82.9260,3.0,4.75,146.81,5.8,'1111122,1111122,1111122' 
COMPS,ioos:station:USF.COMPS:C10:1,2016-08-03T06:05:00Z,27.1690,-82.9260,3.0,6.65,150.94,8.01,'1111122,1111122,1111122' 
COMPS,ioos:station:USF.COMPS:C10:1,2016-08-03T06:35:00Z,27.1690,-82.9260,3.0,6.86,155.82,8.59,'1111122,1111122,1111122' 
COMPS,ioos:station:USF.COMPS:C10:1,2016-08-03T07:05:00Z,27.1690,-82.9260,3.0,6.67,159.28,8.1,'1111122,1111122,1111122' 
COMPS,ioos:station:USF.COMPS:C10:1,2016-08-03T07:35:00Z,27.1690,-82.9260,3.0,6.3,159.38,8.31,'1111122,1111122,1111122' 
COMPS,ioos:station:USF.COMPS:C10:1,2016-08-03T08:05:00Z,27.1690,-82.9260,3.0,6.52,163.18,8.42,'1111122,1111122,1111122' 
COMPS,ioos:station:USF.COMPS:C10:1,2016-08-03T08:35:00Z,27.1690,-82.9260,3.0,6.44,150.41,8.34,'1111122,1111122,1111122' 
COMPS,ioos:station:USF.COMPS:C10:1,2016-08-03T09:05:00Z,27.1690,-82.9260,3.0,5.26,144.23,6.95,'1111122,1111122,1111122' 
COMPS,ioos:station:USF.COMPS:C10:1,2016-08-03T09:35:00Z,27.1690,-82.9260,3.0,4.42,156.96,5.82,'1111122,1111122,1111122' 
COMPS,ioos:station:USF.COMPS:C10:1,2016-08-03T10:05:00Z,27.1690,-82.9260,3.0,2.89,148.1,4.49,'1111122,1111122,1111122' 
COMPS,ioos:station:USF.COMPS:C10:1,2016-08-03T10:35:00Z,27.1690,-82.9260,3.0,3.48,128.11,4.83,'1111122,1111122,1111122' 
COMPS,ioos:station:USF.COMPS:C10:1,2016-08-03T12:05:00Z,27.1690,-82.9260,3.0,2.31,130.04,3.46,'1111122,1111122,1111122' 
COMPS,ioos:station:USF.COMPS:C10:1,2016-08-03T12:35:00Z,27.1690,-82.9260,3.0,2.72,127.71,3.76,'1111122,1111122,1111122' 
COMPS,ioos:station:USF.COMPS:C10:1,2016-08-03T14:05:00Z,27.1690,-82.9260,3.0,2.31,155.52,3.91,'1111122,1111122,1111122' 
COMPS,ioos:station:USF.COMPS:C10:1,2016-08-03T14:35:00Z,27.1690,-82.9260,3.0,1.36,144.62,2.63,'1111122,1111122,1111122' 
COMPS,ioos:station:USF.COMPS:C10:1,2016-08-03T15:05:00Z,27.1690,-82.9260,3.0,1.82,135.92,3.43,'1111122,1111122,1111122' 
COMPS,ioos:station:USF.COMPS:C10:1,2016-08-03T15:35:00Z,27.1690,-82.9260,3.0,1.68,110.48,2.91,'1111122,1111122,1111122' 
COMPS,ioos:station:USF.COMPS:C10:1,2016-08-03T17:05:00Z,27.1690,-82.9260,3.0,2.01,113.24,3.07,'1111122,1111122,1111122' 
COMPS,ioos:station:USF.COMPS:C10:1,2016-08-03T17:35:00Z,27.1690,-82.9260,3.0,1.72,120.99,3.21,'1111122,1111122,1111122' 
COMPS,ioos:station:USF.COMPS:C10:1,2016-08-03T18:05:00Z,27.1690,-82.9260,3.0,1.81,163.76,3.0,'1111122,1111122,1111122' 
COMPS,ioos:station:USF.COMPS:C10:1,2016-08-03T18:35:00Z,27.1690,-82.9260,3.0,0.57,199.44,1.29,'1111122,1111122,1111122' 
COMPS,ioos:station:USF.COMPS:C10:1,2016-08-04T21:05:00Z,27.1690,-82.9260,3.0,3.68,278.48,4.58,'1111122,1111122,1111122' 
COMPS,ioos:station:USF.COMPS:C10:1,2016-08-04T21:35:00Z,27.1690,-82.9260,3.0,3.49,273.64,4.44,'1111122,1111122,1111122' 
COMPS,ioos:station:USF.COMPS:C10:1,2016-08-04T22:05:00Z,27.1690,-82.9260,3.0,3.22,289.21,4.23,'1111122,1111122,1111122' 
COMPS,ioos:station:USF.COMPS:C10:1,2016-08-04T22:35:00Z,27.1690,-82.9260,3.0,2.2,284.29,3.0,'1111122,1111122,1111122' 
COMPS,ioos:station:USF.COMPS:C10:1,2016-08-04T23:05:00Z,27.1690,-82.9260,3.0,0.85,276.4,2.12,'1111122,1111122,1111122' 
COMPS,ioos:station:USF.COMPS:C10:1,2016-08-04T23:35:00Z,27.1690,-82.9260,3.0,1.01,264.02,2.04,'1111122,1111122,1111122' 
COMPS,ioos:station:USF.COMPS:C10:1,2016-08-05T00:05:00Z,27.1690,-82.9260,3.0,0.49,228.6,1.09,'1111122,1111122,1111122' 
COMPS,ioos:station:USF.COMPS:C10:1,2016-08-05T00:35:00Z,27.1690,-82.9260,3.0,0.74,251.28,1.32,'1111122,1111122,1111122' 
COMPS,ioos:station:USF.COMPS:C10:1,2016-08-05T01:05:00Z,27.1690,-82.9260,3.0,1.21,238.37,1.82,'1111122,1111122,1111122' 
COMPS,ioos:station:USF.COMPS:C10:1,2016-08-05T01:35:00Z,27.1690,-82.9260,3.0,1.67,243.39,2.49,'1111122,1111122,1111122' 
COMPS,ioos:station:USF.COMPS:C10:1,2016-08-05T02:05:00Z,27.1690,-82.9260,3.0,0.89,223.82,1.59,'1111122,1111122,1111122' 
COMPS,ioos:station:USF.COMPS:C10:1,2016-08-05T02:35:00Z,27.1690,-82.9260,3.0,0.48,175.66,0.88,'1111122,1111122,1111122' 
COMPS,ioos:station:USF.COMPS:C10:1,2016-08-05T03:05:00Z,27.1690,-82.9260,3.0,1.18,166.35,1.92,'1111122,1111122,1111122' 
COMPS,ioos:station:USF.COMPS:C10:1,2016-08-05T03:35:00Z,27.1690,-82.9260,3.0,2.04,155.12,3.06,'1111122,1111122,1111122' 
COMPS,ioos:station:USF.COMPS:C10:1,2016-08-05T05:05:00Z,27.1690,-82.9260,3.0,2.12,123.58,2.99,'1111122,1111122,1111122' 
COMPS,ioos:station:USF.COMPS:C10:1,2016-08-05T05:35:00Z,27.1690,-82.9260,3.0,2.27,121.49,3.11,'1111122,1111122,1111122' 
COMPS,ioos:station:USF.COMPS:C10:1,2016-08-05T07:05:00Z,27.1690,-82.9260,3.0,3.92,181.59,5.74,'1111122,1111122,1111122' 
COMPS,ioos:station:USF.COMPS:C10:1,2016-08-05T07:35:00Z,27.1690,-82.9260,3.0,4.67,186.84,5.83,'1111122,1111122,1111122' 
COMPS,ioos:station:USF.COMPS:C10:1,2016-08-05T08:05:00Z,27.1690,-82.9260,3.0,4.55,179.35,6.0,'1111122,1111122,1111122' 
COMPS,ioos:station:USF.COMPS:C10:1,2016-08-05T08:35:00Z,27.1690,-82.9260,3.0,4.09,132.61,5.84,'1111122,1111122,1111122' 
COMPS,ioos:station:USF.COMPS:C10:1,2016-08-05T09:05:00Z,27.1690,-82.9260,3.0,3.78,196.92,5.06,'1111122,1111122,1111122' 
COMPS,ioos:station:USF.COMPS:C10:1,2016-08-05T09:35:00Z,27.1690,-82.9260,3.0,6.15,162.76,11.67,'1111122,1111122,1111122' 
COMPS,ioos:station:USF.COMPS:C10:1,2016-08-05T10:05:00Z,27.1690,-82.9260,3.0,6.33,177.64,7.72,'1111122,1111122,1111122' 
COMPS,ioos:station:USF.COMPS:C10:1,2016-08-05T10:35:00Z,27.1690,-82.9260,3.0,5.69,186.91,7.26,'1111122,1111122,1111122' 
COMPS,ioos:station:USF.COMPS:C10:1,2016-08-05T11:05:00Z,27.1690,-82.9260,3.0,4.29,183.06,5.74,'1111122,1111122,1111122' 
COMPS,ioos:station:USF.COMPS:C10:1,2016-08-05T11:35:00Z,27.1690,-82.9260,3.0,7.65,185.73,10.82,'1111122,1111122,1111122' 
COMPS,ioos:station:USF.COMPS:C10:1,2016-08-05T12:05:00Z,27.1690,-82.9260,3.0,6.35,171.39,9.32,'1111122,1111122,1111122' 
COMPS,ioos:station:USF.COMPS:C10:1,2016-08-05T12:35:00Z,27.1690,-82.9260,3.0,8.42,157.65,10.19,'1111122,1111122,1111122' 
COMPS,ioos:station:USF.COMPS:C10:1,2016-08-05T13:05:00Z,27.1690,-82.9260,3.0,7.51,175.41,9.54,'1111122,1111122,1111122' 
COMPS,ioos:station:USF.COMPS:C10:1,2016-08-05T13:35:00Z,27.1690,-82.9260,3.0,7.58,195.34,9.55,'1111122,1111122,1111122' 
COMPS,ioos:station:USF.COMPS:C10:1,2016-08-05T14:05:00Z,27.1690,-82.9260,3.0,6.06,192.4,8.12,'1111122,1111122,1111122' 
COMPS,ioos:station:USF.COMPS:C10:1,2016-08-05T14:35:00Z,27.1690,-82.9260,3.0,6.17,133.43,7.5,'1111122,1111122,1111122' 
COMPS,ioos:station:USF.COMPS:C10:1,2016-08-05T15:05:00Z,27.1690,-82.9260,3.0,4.59,162.76,5.71,'1111122,1111122,1111122' 
COMPS,ioos:station:USF.COMPS:C10:1,2016-08-05T15:35:00Z,27.1690,-82.9260,3.0,6.64,208.4,8.22,'1111122,1111122,1111122' 
COMPS,ioos:station:USF.COMPS:C10:1,2016-08-05T16:05:00Z,27.1690,-82.9260,3.0,7.41,204.03,8.76,'1111122,1111122,1111122' 
COMPS,ioos:station:USF.COMPS:C10:1,2016-08-05T16:35:00Z,27.1690,-82.9260,3.0,4.08,185.35,6.01,'1111122,1111122,1111122' 
COMPS,ioos:station:USF.COMPS:C10:1,2016-08-05T17:05:00Z,27.1690,-82.9260,3.0,4.04,199.29,5.09,'1111122,1111122,1111122' 
COMPS,ioos:station:USF.COMPS:C10:1,2016-08-05T17:35:00Z,27.1690,-82.9260,3.0,3.43,189.23,4.23,'1111122,1111122,1111122' 
COMPS,ioos:station:USF.COMPS:C10:1,2016-08-05T18:05:00Z,27.1690,-82.9260,3.0,2.84,198.12,3.73,'1111122,1111122,1111122' 
COMPS,ioos:station:USF.COMPS:C10:1,2016-08-05T18:35:00Z,27.1690,-82.9260,3.0,3.12,198.42,4.01,'1111122,1111122,1111122' 
COMPS,ioos:station:USF.COMPS:C10:1,2016-08-05T19:05:00Z,27.1690,-82.9260,3.0,3.19,214.53,4.0,'1111122,1111122,1111122' 
COMPS,ioos:station:USF.COMPS:C10:1,2016-08-05T19:35:00Z,27.1690,-82.9260,3.0,6.64,305.63,7.74,'1111122,1111122,1111122' 
COMPS,ioos:station:USF.COMPS:C10:1,2016-08-05T20:05:00Z,27.1690,-82.9260,3.0,4.93,308.42,6.05,'1111122,1111122,1111122' 
COMPS,ioos:station:USF.COMPS:C10:1,2016-08-05T20:35:00Z,27.1690,-82.9260,3.0,4.01,309.82,5.04,'1111122,1111122,1111122' 
COMPS,ioos:station:USF.COMPS:C10:1,2016-08-05T21:05:00Z,27.1690,-82.9260,3.0,4.61,308.26,5.9,'1111122,1111122,1111122' 
COMPS,ioos:station:USF.COMPS:C10:1,2016-08-05T21:35:00Z,27.1690,-82.9260,3.0,4.08,306.54,5.37,'1111122,1111122,1111122' 
COMPS,ioos:station:USF.COMPS:C10:1,2016-08-05T22:05:00Z,27.1690,-82.9260,3.0,4.15,312.85,5.33,'1111122,1111122,1111122' 
COMPS,ioos:station:USF.COMPS:C10:1,2016-08-05T22:35:00Z,27.1690,-82.9260,3.0,2.72,328.64,3.68,'1111122,1111122,1111122' 
COMPS,ioos:station:USF.COMPS:C10:1,2016-08-05T23:05:00Z,27.1690,-82.9260,3.0,2.57,307.95,3.67,'1111122,1111122,1111122' 
COMPS,ioos:station:USF.COMPS:C10:1,2016-08-05T23:35:00Z,27.1690,-82.9260,3.0,1.9,309.76,3.03,'1111122,1111122,1111122' 
COMPS,ioos:station:USF.COMPS:C10:1,2016-08-06T00:05:00Z,27.1690,-82.9260,3.0,2.36,309.29,3.25,'1111122,1111122,1111122' 
COMPS,ioos:station:USF.COMPS:C10:1,2016-08-06T00:35:00Z,27.1690,-82.9260,3.0,1.13,302.27,2.02,'1111122,1111122,1111122' 
COMPS,ioos:station:USF.COMPS:C10:1,2016-08-06T01:05:00Z,27.1690,-82.9260,3.0,0.62,300.5,1.1,'1111122,1111122,1111122' 
COMPS,ioos:station:USF.COMPS:C10:1,2016-08-06T02:05:00Z,27.1690,-82.9260,3.0,2.41,118.54,3.29,'1111122,1111122,1111122' 
COMPS,ioos:station:USF.COMPS:C10:1,2016-08-06T02:35:00Z,27.1690,-82.9260,3.0,3.13,139.09,4.04,'1111122,1111122,1111122' 
COMPS,ioos:station:USF.COMPS:C10:1,2016-08-06T03:05:00Z,27.1690,-82.9260,3.0,2.75,150.14,3.88,'1111122,1111122,1111122' 
COMPS,ioos:station:USF.COMPS:C10:1,2016-08-06T03:35:00Z,27.1690,-82.9260,3.0,2.86,148.84,4.19,'1111122,1111122,1111122' 
COMPS,ioos:station:USF.COMPS:C10:1,2016-08-06T04:05:00Z,27.1690,-82.9260,3.0,2.28,167.14,3.19,'1111122,1111122,1111122' 
COMPS,ioos:station:USF.COMPS:C10:1,2016-08-06T04:35:00Z,27.1690,-82.9260,3.0,2.15,170.05,3.14,'1111122,1111122,1111122' 
COMPS,ioos:station:USF.COMPS:C10:1,2016-08-06T06:05:00Z,27.1690,-82.9260,3.0,1.87,191.24,2.59,'1111122,1111122,1111122' 
COMPS,ioos:station:USF.COMPS:C10:1,2016-08-06T06:35:00Z,27.1690,-82.9260,3.0,2.12,199.63,3.7,'1111122,1111122,1111122' 
COMPS,ioos:station:USF.COMPS:C10:1,2016-08-06T07:05:00Z,27.1690,-82.9260,3.0,2.9,174.47,3.8,'1111122,1111122,1111122' 
COMPS,ioos:station:USF.COMPS:C10:1,2016-08-06T07:35:00Z,27.1690,-82.9260,3.0,3.03,176.16,4.79,'1111122,1111122,1111122' 
COMPS,ioos:station:USF.COMPS:C10:1,2016-08-06T09:05:00Z,27.1690,-82.9260,3.0,3.7,170.77,5.64,'1111122,1111122,1111122' 
COMPS,ioos:station:USF.COMPS:C10:1,2016-08-06T09:35:00Z,27.1690,-82.9260,3.0,5.44,189.81,6.41,'1111122,1111122,1111122' 
COMPS,ioos:station:USF.COMPS:C10:1,2016-08-06T10:05:00Z,27.1690,-82.9260,3.0,4.6,193.21,5.71,'1111122,1111122,1111122' 
COMPS,ioos:station:USF.COMPS:C10:1,2016-08-06T10:35:00Z,27.1690,-82.9260,3.0,5.35,190.68,6.52,'1111122,1111122,1111122' 
COMPS,ioos:station:USF.COMPS:C10:1,2016-08-06T11:05:00Z,27.1690,-82.9260,3.0,5.53,194.36,6.61,'1111122,1111122,1111122' 
COMPS,ioos:station:USF.COMPS:C10:1,2016-08-06T11:35:00Z,27.1690,-82.9260,3.0,5.28,198.29,6.62,'1111122,1111122,1111122' 
COMPS,ioos:station:USF.COMPS:C10:1,2016-08-06T12:05:00Z,27.1690,-82.9260,3.0,5.3,202.66,6.51,'1111122,1111122,1111122' 
COMPS,ioos:station:USF.COMPS:C10:1,2016-08-06T12:35:00Z,27.1690,-82.9260,3.0,5.65,200.68,7.1,'1111122,1111122,1111122' 
COMPS,ioos:station:USF.COMPS:C10:1,2016-08-06T13:05:00Z,27.1690,-82.9260,3.0,5.9,196.55,7.54,'1111122,1111122,1111122' 
COMPS,ioos:station:USF.COMPS:C10:1,2016-08-06T13:35:00Z,27.1690,-82.9260,3.0,5.63,198.41,7.1,'1111122,1111122,1111122' 
COMPS,ioos:station:USF.COMPS:C10:1,2016-08-06T14:05:00Z,27.1690,-82.9260,3.0,5.52,203.4,7.06,'1111122,1111122,1111122' 
COMPS,ioos:station:USF.COMPS:C10:1,2016-08-06T14:35:00Z,27.1690,-82.9260,3.0,5.41,188.22,6.81,'1111122,1111122,1111122' 
COMPS,ioos:station:USF.COMPS:C10:1,2016-08-06T15:05:00Z,27.1690,-82.9260,3.0,5.72,200.79,7.51,'1111122,1111122,1111122' 
COMPS,ioos:station:USF.COMPS:C10:1,2016-08-06T15:35:00Z,27.1690,-82.9260,3.0,5.91,199.45,7.79,'1111122,1111122,1111122' 
COMPS,ioos:station:USF.COMPS:C10:1,2016-08-06T16:05:00Z,27.1690,-82.9260,3.0,6.2,213.03,7.91,'1111122,1111122,1111122' 
COMPS,ioos:station:USF.COMPS:C10:1,2016-08-06T16:35:00Z,27.1690,-82.9260,3.0,5.61,219.34,6.8,'1111122,1111122,1111122' 
COMPS,ioos:station:USF.COMPS:C10:1,2016-08-06T17:05:00Z,27.1690,-82.9260,3.0,6.02,222.08,7.66,'1111122,1111122,1111122' 
COMPS,ioos:station:USF.COMPS:C10:1,2016-08-06T17:35:00Z,27.1690,-82.9260,3.0,6.46,224.69,8.05,'1111122,1111122,1111122' 
COMPS,ioos:station:USF.COMPS:C10:1,2016-08-06T18:05:00Z,27.1690,-82.9260,3.0,6.34,242.04,7.67,'1111122,1111122,1111122' 
COMPS,ioos:station:USF.COMPS:C10:1,2016-08-06T18:35:00Z,27.1690,-82.9260,3.0,6.93,240.19,8.53,'1111122,1111122,1111122' 
COMPS,ioos:station:USF.COMPS:C10:1,2016-08-06T19:05:00Z,27.1690,-82.9260,3.0,6.76,253.04,8.23,'1111122,1111122,1111122' 
COMPS,ioos:station:USF.COMPS:C10:1,2016-08-06T19:35:00Z,27.1690,-82.9260,3.0,6.97,263.42,8.43,'1111122,1111122,1111122' 
COMPS,ioos:station:USF.COMPS:C10:1,2016-08-06T20:05:00Z,27.1690,-82.9260,3.0,6.87,271.85,8.21,'1111122,1111122,1111122' 
COMPS,ioos:station:USF.COMPS:C10:1,2016-08-06T20:35:00Z,27.1690,-82.9260,3.0,8.62,310.59,10.48,'1111122,1111122,1111122' 
COMPS,ioos:station:USF.COMPS:C10:1,2016-08-06T21:05:00Z,27.1690,-82.9260,3.0,7.09,299.36,8.83,'1111122,1111122,1111122' 
COMPS,ioos:station:USF.COMPS:C10:1,2016-08-06T21:35:00Z,27.1690,-82.9260,3.0,7.08,306.75,9.21,'1111122,1111122,1111122' 